Voltar ao catálogo

THORAD DELTA 1 DEB

AtivoSSO
NORAD 8556·DEBRIS·🇺🇸 United States

Lançado Nov 15, 1974 de Vandenberg Space Force Base

Loading…

Próximas Passagens (próximas 24 horas)

TLE

AtualizadoSource: Space-Track

Época: Sep 14, 2026, 07:24 UTC

1 08556U 74089CT  26257.30851149  .00000049  00000-0  56609-3 0  9997
2 08556 101.3490  30.6843 0080569 353.1511  35.6770 12.53547947368131

Acompanhe THORAD DELTA 1 DEB em tempo real com AllMySat

Download on the App Store